Volver al catálogo

COSMOS 1818 COOLANT

LostLEO
NORAD 50781·DEBRIS·🇷🇺 Russia

Lanzado Feb 1, 1987 desde Baikonur Cosmodrome

Loading…

Próximos Pases (próximas 24 horas)

TLE

ObsoletoSource: Space-Track

Época: Jan 15, 2024, 00:48 UTC

1 50781U 87011AW  24015.03350406  .00001606  00000-0  59265-3 0  9994
2 50781  65.0097 166.5754 0019776 283.5677  76.3206 14.35336183511886

Sigue COSMOS 1818 COOLANT en tiempo real con AllMySat

Download on the App Store